This demonstration page uses our WeatherBlox Daily Observations layout. Learn more.

Left ArrowRight Arrow

Hourly Observations for May 10, 2021

Temp ( °F °C ) Dew Point ( °F °C ) Humidity (%) Winds ( mph kmh ) Pressure ( in mb ) Visibility ( mi km ) Precip ( " mm )
12:51 am 00:51 Clear 70 21.1 22 -5.6 16 16 NW 13 20 29.74 1007 10 16 N/A
1:51 am 01:51 Clear 69 20.6 22 -5.6 17 17 NNW 9 15 29.73 1007 10 16 N/A
2:51 am 02:51 Clear 65 18.3 22 -5.6 19 19 S 6 9 29.74 1007 10 16 N/A
3:51 am 03:51 Clear 62 16.7 21 -6.1 21 21 ESE 7 11 29.75 1007 10 16 N/A
4:51 am 04:51 Clear 60 15.6 21 -6.1 22 22 ESE 6 9 29.76 1008 10 16 N/A
5:51 am 05:51 Sunny 60 15.6 19 -7.2 20 20 E 9 15 29.77 1008 10 16 N/A
6:51 am 06:51 Sunny 71 21.7 22 -5.6 16 16 E 7 11 29.78 1008 10 16 N/A
7:51 am 07:51 Sunny 75 23.9 22 -5.6 14 14 ESE 9 15 29.79 1009 10 16 N/A
8:51 am 08:51 Sunny 77 25 21 -6.1 12 12 ESE 9 15 29.79 1009 10 16 N/A
9:51 am 09:51 Sunny 80 26.7 20 -6.7 10 10 undefined N/A 29.78 1009 10 16 N/A
10:51 am 10:51 Sunny 83 28.3 15 -9.4 8 8 VRB 6 9 29.78 1009 10 16 N/A
11:51 am 11:51 Sunny 85 29.4 15 -9.4 7 7 NNW 8 13 29.75 1007 10 16 N/A
12:51 pm 12:51 Sunny 88 31.1 16 -8.9 7 7 SW 9 15 29.71 1006 10 16 N/A
1:51 pm 13:51 Sunny 88 31.1 14 -10 6 6 VRB 7 11 29.68 1005 10 16 N/A
2:51 pm 14:51 Sunny 89 31.7 14 -10 6 6 VRB 6 9 29.66 1005 10 16 N/A
3:51 pm 15:51 Sunny 92 33.3 23 -5 8 8 NW 17 28 29.63 1004 10 16 N/A
4:51 pm 16:51 Sunny 90 32.2 26 -3.3 10 10 W 15 24 29.64 1004 10 16 N/A
5:51 pm 17:51 Sunny 89 31.7 27 -2.8 11 11 W 18 30 29.64 1004 10 16 N/A
6:51 pm 18:51 Sunny 86 30 28 -2.2 12 12 WNW 14 22 29.63 1003 10 16 N/A
7:51 pm 19:51 Clear 82 27.8 26 -3.3 13 13 WNW 9 15 29.65 1004 10 16 N/A
8:51 pm 20:51 Clear 77 25 23 -5 13 13 WNW 8 13 29.69 1005 10 16 N/A
9:51 pm 21:51 Clear 73 22.8 19 -7.2 13 13 WNW 9 15 29.71 1006 10 16 N/A
10:51 pm 22:51 Clear 72 22.2 16 -8.9 12 12 NW 13 20 29.72 1007 10 16 N/A
11:51 pm 23:51 Clear 72 22.2 15 -9.4 11 11 NW 12 19 29.73 1007 10 16 N/A

Powered by AerisWeather